{"data":{"norad_id":56112,"epoch":"2026-05-24T20:09:36.341280Z","epoch_age_seconds":95708,"freshness":"FRESH","line1":"1 56112U 23046V   26144.84000395 -.00001587  00000+0 -49512-4 0  9993","line2":"2 56112  43.0060  91.8446 0001393 283.3136  76.7560 15.26727019173679","mean_motion":15.26727019,"eccentricity":0.0001393,"inclination_deg":43.006,"raan_deg":91.8446,"arg_perigee_deg":283.3136,"mean_anomaly_deg":76.756,"bstar":-4.9512e-5,"rev_number":17367,"period_min":94.31941546061,"perigee_km":484.6482979181,"apogee_km":486.5605362769,"semimajor_km":6863.7414170975,"source":"CELESTRAK","updated_at":"2026-05-25T13:38:17.956714Z"}}